Date,TemperatureHighF,TemperatureAvgF,TemperatureLowF,DewpointHighF,DewpointAvgF,DewpointLowF,HumidityHigh,HumidityAvg,HumidityLow,PressureMaxIn,PressureMinIn,WindSpeedMaxMPH,WindSpeedAvgMPH,GustSpeedMaxMPH,PrecipitationSumIn
2013-1-1,24,15,5,-100,-100,-100,0,0,100,0.00,40.00,0,-999,0,0.00
2013-1-2,17,7,1,-100,-100,-100,0,0,100,0.00,40.00,0,-999,0,0.00
2013-1-3,15,7,2,-100,-100,-100,0,0,100,0.00,40.00,0,-999,0,0.00
2013-1-4,28,14,4,-100,-100,-100,0,0,100,0.00,40.00,0,-999,0,0.00
2013-1-5,28,22,14,-100,-100,-100,0,0,100,0.00,40.00,0,-999,0,0.00
2013-1-6,33,23,16,-100,-100,-100,0,0,100,0.00,40.00,0,-999,0,0.00
2013-1-7,35,31,26,-100,-100,-100,0,0,100,0.00,40.00,0,-999,0,0.00
2013-1-8,38,34,31,-100,-100,-100,0,0,100,0.00,40.00,0,-999,0,0.00
2013-1-9,42,37,32,-100,-100,-100,0,0,100,0.00,40.00,0,-999,0,0.00
2013-1-10,32,23,12,-100,-100,-100,0,0,100,0.00,40.00,0,-999,0,0.00
2013-1-11,14,9,2,-100,-100,-100,0,0,100,0.00,40.00,0,-999,0,0.00
2013-1-12,7,0,-8,-100,-100,-100,0,0,100,0.00,40.00,0,-999,0,0.00
2013-1-13,15,4,-1,-100,-100,-100,0,0,100,0.00,40.00,0,-999,0,0.00
2013-1-14,18,9,-4,-100,-100,-100,0,0,100,0.00,40.00,0,-999,0,0.00
2013-1-15,31,23,18,-100,-100,-100,0,0,100,0.00,40.00,0,-999,0,0.00
2013-1-16,40,25,18,-100,-100,-100,0,0,100,0.00,40.00,0,-999,0,0.00
2013-1-17,32,22,15,-100,-100,-100,0,0,100,0.00,40.00,0,-999,0,0.00
2013-1-18,49,34,24,-100,-100,-100,0,0,100,0.00,40.00,0,-999,0,0.00
2013-1-19,41,26,16,-100,-100,-100,0,0,100,0.00,40.00,0,-999,0,0.00
2013-1-20,41,28,19,-100,-100,-100,0,0,100,0.00,40.00,0,-999,0,0.00
2013-1-21,39,27,21,-100,-100,-100,0,0,100,0.00,40.00,0,-999,0,0.00
2013-1-22,28,20,12,-100,-100,-100,0,0,100,0.00,40.00,0,-999,0,0.00
2013-1-23,41,25,16,-100,-100,-100,0,0,100,0.00,40.00,0,-999,0,0.00
2013-1-24,41,36,25,-100,-100,-100,0,0,100,0.00,40.00,0,-999,0,0.00
2013-1-25,43,34,26,-100,-100,-100,0,0,100,0.00,40.00,0,-999,0,0.00
2013-1-26,37,32,29,-100,-100,-100,0,0,100,0.00,40.00,0,-999,0,0.00
2013-1-27,30,23,14,-100,-100,-100,0,0,100,0.00,40.00,0,-999,0,0.00
2013-1-28,29,20,11,-100,-100,-100,0,0,100,0.00,40.00,0,-999,0,0.00
2013-1-29,24,20,17,-100,-100,-100,0,0,100,0.00,40.00,0,-999,0,0.00
2013-1-30,33,29,21,-100,-100,-100,0,0,100,0.00,40.00,0,-999,0,0.00
2013-1-31,38,34,30,-100,-100,-100,0,0,100,0.00,40.00,0,-999,0,0.00
2013-2-1,42,34,28,-100,-100,-100,0,0,100,0.00,40.00,0,-999,0,0.00
2013-2-2,41,28,22,-100,-100,-100,0,0,100,0.00,40.00,0,-999,0,0.00
2013-2-3,39,27,17,-100,-100,-100,0,0,100,0.00,40.00,0,-999,0,0.00
2013-2-4,40,35,30,-100,-100,-100,0,0,100,0.00,40.00,0,-999,0,0.00
2013-2-5,42,33,27,-100,-100,-100,0,0,100,0.00,40.00,0,-999,0,0.00
2013-2-6,34,29,21,-100,-100,-100,0,0,100,0.00,40.00,0,-999,0,0.00
2013-2-7,32,24,16,-100,-100,-100,0,0,100,0.00,40.00,0,-999,0,0.00
2013-2-8,34,24,14,-100,-100,-100,0,0,100,0.00,40.00,0,-999,0,0.00
2013-2-9,31,27,25,-100,-100,-100,0,0,100,0.00,40.00,0,-999,0,0.00
2013-2-10,32,21,14,-100,-100,-100,0,0,100,0.00,40.00,0,-999,0,0.00
2013-2-11,34,20,9,-100,-100,-100,0,0,100,0.00,40.00,0,-999,0,0.00
2013-2-12,35,29,19,-100,-100,-100,0,0,100,0.00,40.00,0,-999,0,0.00
2013-2-13,40,34,31,-100,-100,-100,0,0,100,0.00,40.00,0,-999,0,0.00
2013-2-14,36,31,27,-100,-100,-100,0,0,100,0.00,40.00,0,-999,0,0.00
2013-2-15,45,32,26,-100,-100,-100,0,0,100,0.00,40.00,0,-999,0,0.00
2013-2-16,45,32,20,-100,-100,-100,0,0,100,0.00,40.00,0,-999,0,0.00
2013-2-17,33,28,23,-100,-100,-100,0,0,100,0.00,40.00,0,-999,0,0.00
2013-2-18,35,26,21,-100,-100,-100,0,0,100,0.00,40.00,0,-999,0,0.00
2013-2-19,35,26,20,-100,-100,-100,0,0,100,0.00,40.00,0,-999,0,0.00
2013-2-20,31,26,24,-100,-100,-100,0,0,100,0.00,40.00,0,-999,0,0.00
2013-2-21,29,22,9,-100,-100,-100,0,0,100,0.00,40.00,0,-999,0,0.00
2013-2-22,37,28,21,-100,-100,-100,0,0,100,0.00,40.00,0,-999,0,0.00
2013-2-23,34,28,24,-100,-100,-100,0,0,100,0.00,40.00,0,-999,0,0.00
2013-2-24,35,26,20,-100,-100,-100,0,0,100,0.00,40.00,0,-999,0,0.00
2013-2-25,34,26,18,-100,-100,-100,0,0,100,0.00,40.00,0,-999,0,0.00
2013-2-26,33,24,17,-100,-100,-100,0,0,100,0.00,40.00,0,-999,0,0.00
2013-2-27,38,26,16,-100,-100,-100,0,0,100,0.00,40.00,0,-999,0,0.00
2013-2-28,39,30,21,-100,-100,-100,0,0,100,0.00,40.00,0,-999,0,0.00
2013-3-1,50,40,34,-100,-100,-100,0,0,100,0.00,40.00,0,-999,0,0.00
2013-3-2,47,39,35,-100,-100,-100,0,0,100,0.00,40.00,0,-999,0,0.00
2013-3-3,36,32,25,-100,-100,-100,0,0,100,0.00,40.00,0,-999,0,0.00
2013-3-4,30,21,14,-100,-100,-100,0,0,100,0.00,40.00,0,-999,0,0.00
2013-3-5,32,21,8,-100,-100,-100,0,0,100,0.00,40.00,0,-999,0,0.00
2013-3-6,40,29,23,-100,-100,-100,0,0,100,0.00,40.00,0,-999,0,0.00
2013-3-7,40,29,22,-100,-100,-100,0,0,100,0.00,40.00,0,-999,0,0.00
2013-3-8,41,26,16,-100,-100,-100,0,0,100,0.00,40.00,0,-999,0,0.00
2013-3-9,42,28,18,-100,-100,-100,0,0,100,0.00,40.00,0,-999,0,0.00
2013-3-10,46,33,20,-100,-100,-100,0,0,100,0.00,40.00,0,-999,0,0.00
2013-3-11,45,34,27,-100,-100,-100,0,0,100,0.00,40.00,0,-999,0,0.00
2013-3-12,47,35,24,-100,-100,-100,0,0,100,0.00,40.00,0,-999,0,0.00
2013-3-13,54,45,36,-100,-100,-100,0,0,100,0.00,40.00,0,-999,0,0.00
2013-3-14,58,44,31,-100,-100,-100,0,0,100,0.00,40.00,0,-999,0,0.00
2013-3-15,52,42,34,-100,-100,-100,0,0,100,0.00,40.00,0,-999,0,0.00
2013-3-16,47,38,31,-100,-100,-100,0,0,100,0.00,40.00,0,-999,0,0.00
2013-3-17,35,29,24,-100,-100,-100,0,0,100,0.00,40.00,0,-999,0,0.00
2013-3-18,35,26,20,-100,-100,-100,0,0,100,0.00,40.00,0,-999,0,0.00
2013-3-19,39,27,16,-100,-100,-100,0,0,100,0.00,40.00,0,-999,0,0.00
2013-3-20,50,35,24,-100,-100,-100,0,0,100,0.00,40.00,0,-999,0,0.00
2013-3-21,33,28,23,-100,-100,-100,0,0,100,0.00,40.00,0,-999,0,0.00
2013-3-22,30,22,15,-100,-100,-100,0,0,100,0.00,40.00,0,-999,0,0.00
2013-3-23,29,20,12,-100,-100,-100,0,0,100,0.00,40.00,0,-999,0,0.00
2013-3-24,35,22,11,-100,-100,-100,0,0,100,0.00,40.00,0,-999,0,0.00
2013-3-25,41,26,13,-100,-100,-100,0,0,100,0.00,40.00,0,-999,0,0.00
2013-3-26,50,37,30,-100,-100,-100,0,0,100,0.00,40.00,0,-999,0,0.00
2013-3-27,50,36,25,-100,-100,-100,0,0,100,0.00,40.00,0,-999,0,0.00
2013-3-28,55,42,29,-100,-100,-100,0,0,100,0.00,40.00,0,-999,0,0.00
2013-3-29,46,40,34,-100,-100,-100,0,0,100,0.00,40.00,0,-999,0,0.00
2013-3-30,55,41,31,-100,-100,-100,0,0,100,0.00,40.00,0,-999,0,0.00
2013-3-31,58,40,26,-100,-100,-100,0,0,100,0.00,40.00,0,-999,0,0.00
2013-4-1,59,40,26,-100,-100,-100,0,0,100,0.00,40.00,0,-999,0,0.00
2013-4-2,65,42,29,-100,-100,-100,0,0,100,0.00,40.00,0,-999,0,0.00
2013-4-3,59,41,32,-100,-100,-100,0,0,100,0.00,40.00,0,-999,0,0.00
2013-4-4,60,46,32,-100,-100,-100,0,0,100,0.00,40.00,0,-999,0,0.00
2013-4-5,52,44,38,-100,-100,-100,0,0,100,0.00,40.00,0,-999,0,0.00
2013-4-6,47,41,34,-100,-100,-100,0,0,100,0.00,40.00,0,-999,0,0.00
2013-4-7,44,37,32,-100,-100,-100,0,0,100,0.00,40.00,0,-999,0,0.00
2013-4-8,35,28,21,-100,-100,-100,0,0,100,0.00,40.00,0,-999,0,0.00
2013-4-9,43,25,13,-100,-100,-100,0,0,100,0.00,40.00,0,-999,0,0.00
2013-4-10,52,39,25,-100,-100,-100,0,0,100,0.00,40.00,0,-999,0,0.00
2013-4-11,47,40,34,-100,-100,-100,0,0,100,0.00,40.00,0,-999,0,0.00
2013-4-12,52,39,30,-100,-100,-100,0,0,100,0.00,40.00,0,-999,0,0.00
2013-4-13,44,38,29,-100,-100,-100,0,0,100,0.00,40.00,0,-999,0,0.00
2013-4-14,40,30,25,-100,-100,-100,0,0,100,0.00,40.00,0,-999,0,0.00
2013-4-15,32,24,16,-100,-100,-100,0,0,100,0.00,40.00,0,-999,0,0.00
2013-4-16,35,24,17,-100,-100,-100,0,0,100,0.00,40.00,0,-999,0,0.00
2013-4-17,41,26,11,-100,-100,-100,0,0,100,0.00,40.00,0,-999,0,0.00
2013-4-18,46,31,17,-100,-100,-100,0,0,100,0.00,40.00,0,-999,0,0.00
2013-4-19,48,41,34,-100,-100,-100,0,0,100,0.00,40.00,0,-999,0,0.00
2013-4-20,53,43,36,-100,-100,-100,0,0,100,0.00,40.00,0,-999,0,0.00
2013-4-21,40,33,20,-100,-100,-100,0,0,100,0.00,40.00,0,-999,0,0.00
2013-4-22,36,26,18,-100,-100,-100,0,0,100,0.00,40.00,0,-999,0,0.00
2013-4-23,41,29,16,-100,-100,-100,0,0,100,0.00,40.00,0,-999,0,0.00
2013-4-24,59,39,22,-100,-100,-100,0,0,100,0.00,40.00,0,-999,0,0.00
2013-4-25,63,46,29,-100,-100,-100,0,0,100,0.00,40.00,0,-999,0,0.00
2013-4-26,69,49,32,-100,-100,-100,0,0,100,0.00,40.00,0,-999,0,0.00
2013-4-27,69,54,38,-100,-100,-100,0,0,100,0.00,40.00,0,-999,0,0.00
2013-4-28,58,49,42,-100,-100,-100,0,0,100,0.00,40.00,0,-999,0,0.00
2013-4-29,51,44,40,-100,-100,-100,0,0,100,0.00,40.00,0,-999,0,0.00
2013-4-30,36,31,25,-100,-100,-100,0,0,100,0.00,40.00,0,-999,0,0.00
2013-5-1,47,32,22,-100,-100,-100,0,0,100,0.00,40.00,0,-999,0,0.00
2013-5-2,65,39,21,-100,-100,-100,0,0,100,0.00,40.00,0,-999,0,0.00
2013-5-3,50,44,39,-100,-100,-100,0,0,100,0.00,40.00,0,-999,0,0.00
2013-5-4,53,45,37,-100,-100,-100,0,0,100,0.00,40.00,0,-999,0,0.00
2013-5-5,67,47,31,-100,-100,-100,0,0,100,0.00,40.00,0,-999,0,0.00
2013-5-6,71,50,31,-100,-100,-100,0,0,100,0.00,40.00,0,-999,0,0.00
2013-5-7,69,53,34,-100,-100,-100,0,0,100,0.00,40.00,0,-999,0,0.00
2013-5-8,74,54,35,-100,-100,-100,0,0,100,0.00,40.00,0,-999,0,0.00
2013-5-9,75,56,41,-100,-100,-100,0,0,100,0.00,40.00,0,-999,0,0.00
2013-5-10,71,55,39,-100,-100,-100,0,0,100,0.00,40.00,0,-999,0,0.00
2013-5-11,76,56,39,-100,-100,-100,0,0,100,0.00,40.00,0,-999,0,0.00
2013-5-12,83,62,46,-100,-100,-100,0,0,100,0.00,40.00,0,-999,0,0.00
2013-5-13,81,63,46,-100,-100,-100,0,0,100,0.00,40.00,0,-999,0,0.00
2013-5-14,70,55,41,-100,-100,-100,0,0,100,0.00,40.00,0,-999,0,0.00
2013-5-15,63,50,34,-100,-100,-100,0,0,100,0.00,40.00,0,-999,0,0.00
2013-5-16,58,47,38,-100,-100,-100,0,0,100,0.00,40.00,0,-999,0,0.00
2013-5-17,47,45,38,-100,-100,-100,0,0,100,0.00,40.00,0,-999,0,0.00
2013-5-18,52,47,43,-100,-100,-100,0,0,100,0.00,40.00,0,-999,0,0.00
2013-5-19,50,46,42,-100,-100,-100,0,0,100,0.00,40.00,0,-999,0,0.00
2013-5-20,65,52,43,-100,-100,-100,0,0,100,0.00,40.00,0,-999,0,0.00
2013-5-21,70,54,36,-100,-100,-100,0,0,100,0.00,40.00,0,-999,0,0.00
2013-5-22,66,48,39,-100,-100,-100,0,0,100,0.00,40.00,0,-999,0,0.00
2013-5-23,47,38,33,-100,-100,-100,0,0,100,0.00,40.00,0,-999,0,0.00
2013-5-24,56,44,36,-100,-100,-100,0,0,100,0.00,40.00,0,-999,0,0.00
2013-5-25,56,44,34,-100,-100,-100,0,0,100,0.00,40.00,0,-999,0,0.00
2013-5-26,62,45,34,-100,-100,-100,0,0,100,0.00,40.00,0,-999,0,0.00
2013-5-27,63,50,42,-100,-100,-100,0,0,100,0.00,40.00,0,-999,0,0.00
2013-5-28,52,47,42,-100,-100,-100,0,0,100,0.00,40.00,0,-999,0,0.00
2013-5-29,61,51,44,-100,-100,-100,0,0,100,0.00,40.00,0,-999,0,0.00
2013-5-30,47,44,42,-100,-100,-100,0,0,100,0.00,40.00,0,-999,0,0.00
2013-5-31,52,49,42,-100,-100,-100,0,0,100,0.00,40.00,0,-999,0,0.00
2013-6-1,63,47,31,-100,-100,-100,0,0,100,0.00,40.00,0,-999,0,0.00
2013-6-2,53,47,41,-100,-100,-100,0,0,100,0.00,40.00,0,-999,0,0.00
2013-6-3,52,45,40,-100,-100,-100,0,0,100,0.00,40.00,0,-999,0,0.00
2013-6-4,60,48,41,-100,-100,-100,0,0,100,0.00,40.00,0,-999,0,0.00
2013-6-5,71,51,36,-100,-100,-100,0,0,100,0.00,40.00,0,-999,0,0.00
2013-6-6,76,59,45,-100,-100,-100,0,0,100,0.00,40.00,0,-999,0,0.00
2013-6-7,72,60,48,-100,-100,-100,0,0,100,0.00,40.00,0,-999,0,0.00
2013-6-8,79,62,45,-100,-100,-100,0,0,100,0.00,40.00,0,-999,0,0.00
2013-6-9,80,60,42,-100,-100,-100,0,0,100,0.00,40.00,0,-999,0,0.00
2013-6-10,74,58,39,-100,-100,-100,0,0,100,0.00,40.00,0,-999,0,0.00
2013-6-11,74,58,47,-100,-100,-100,0,0,100,0.00,40.00,0,-999,0,0.00
2013-6-12,70,57,47,-100,-100,-100,0,0,100,0.00,40.00,0,-999,0,0.00
2013-6-13,57,49,43,-100,-100,-100,0,0,100,0.00,40.00,0,-999,0,0.00
2013-6-14,60,47,41,-100,-100,-100,0,0,100,0.00,40.00,0,-999,0,0.00
2013-6-15,70,49,34,-100,-100,-100,0,0,100,0.00,40.00,0,-999,0,0.00
2013-6-16,70,50,38,-100,-100,-100,0,0,100,0.00,40.00,0,-999,0,0.00
2013-6-17,78,59,43,-100,-100,-100,0,0,100,0.00,40.00,0,-999,0,0.00
2013-6-18,77,61,46,-100,-100,-100,0,0,100,0.00,40.00,0,-999,0,0.00
2013-6-19,56,51,45,-100,-100,-100,0,0,100,0.00,40.00,0,-999,0,0.00
2013-6-20,54,46,42,-100,-100,-100,0,0,100,0.00,40.00,0,-999,0,0.00
2013-6-22,61,56,48,-100,-100,-100,0,0,100,0.00,40.00,0,-999,0,0.00
2013-6-23,69,55,38,-100,-100,-100,0,0,100,0.00,40.00,0,-999,0,0.00
2013-6-24,72,58,49,-100,-100,-100,0,0,100,0.00,40.00,0,-999,0,0.00
2013-6-25,68,57,49,-100,-100,-100,0,0,100,0.00,40.00,0,-999,0,0.00
2013-6-26,67,58,50,-100,-100,-100,0,0,100,0.00,40.00,0,-999,0,0.00
2013-6-27,83,64,51,-100,-100,-100,0,0,100,0.00,40.00,0,-999,0,0.00
2013-6-28,85,65,49,-100,-100,-100,0,0,100,0.00,40.00,0,-999,0,0.00
2013-6-29,84,67,53,-100,-100,-100,0,0,100,0.00,40.00,0,-999,0,0.00
2013-6-30,87,69,55,-100,-100,-100,0,0,100,0.00,40.00,0,-999,0,0.00
2013-7-1,89,69,54,-100,-100,-100,0,0,100,0.00,40.00,0,-999,0,0.00
2013-7-2,92,70,56,-100,-100,-100,0,0,100,0.00,40.00,0,-999,0,0.00
2013-7-3,91,73,59,-100,-100,-100,0,0,100,0.00,40.00,0,-999,0,0.00
2013-7-4,83,67,52,-100,-100,-100,0,0,100,0.00,40.00,0,-999,0,0.00
2013-7-5,76,63,47,-100,-100,-100,0,0,100,0.00,40.00,0,-999,0,0.00
2013-7-6,77,54,42,-100,-100,-100,0,0,100,0.00,40.00,0,-999,0,0.00
2013-7-7,81,62,46,-100,-100,-100,0,0,100,0.00,40.00,0,-999,0,0.00
2013-7-8,75,60,52,-100,-100,-100,0,0,100,0.00,40.00,0,-999,0,0.00
2013-7-9,80,61,44,-100,-100,-100,0,0,100,0.00,40.00,0,-999,0,0.00
2013-7-10,91,64,46,-100,-100,-100,0,0,100,0.00,40.00,0,-999,0,0.00
2013-7-11,79,64,52,-100,-100,-100,0,0,100,0.00,40.00,0,-999,0,0.00
2013-7-12,79,56,45,-100,-100,-100,0,0,100,0.00,40.00,0,-999,0,0.00
2013-7-13,77,60,43,-100,-100,-100,0,0,100,0.00,40.00,0,-999,0,0.00
2013-7-14,86,63,42,-100,-100,-100,0,0,100,0.00,40.00,0,-999,0,0.00
2013-7-15,90,63,45,-100,-100,-100,0,0,100,0.00,40.00,0,-999,0,0.00
2013-7-16,82,65,52,-100,-100,-100,0,0,100,0.00,40.00,0,-999,0,0.00
2013-7-17,83,65,56,-100,-100,-100,0,0,100,0.00,40.00,0,-999,0,0.00
2013-7-18,88,67,49,-100,-100,-100,0,0,100,0.00,40.00,0,-999,0,0.00
2013-7-19,88,63,46,-100,-100,-100,0,0,100,0.00,40.00,0,-999,0,0.00
2013-7-20,90,65,45,-100,-100,-100,0,0,100,0.00,40.00,0,-999,0,0.00
2013-7-21,90,66,45,-100,-100,-100,0,0,100,0.00,40.00,0,-999,0,0.00
2013-7-22,88,64,45,-100,-100,-100,0,0,100,0.00,40.00,0,-999,0,0.00
2013-7-23,87,62,47,-100,-100,-100,0,0,100,0.00,40.00,0,-999,0,0.00
2013-7-24,90,69,45,-100,-100,-100,0,0,100,0.00,40.00,0,-999,0,0.00
2013-7-25,85,70,49,-100,-100,-100,0,0,100,0.00,40.00,0,-999,0,0.00
2013-7-26,91,69,48,-100,-100,-100,0,0,100,0.00,40.00,0,-999,0,0.00
2013-7-27,89,70,50,-100,-100,-100,0,0,100,0.00,40.00,0,-999,0,0.00
2013-7-28,83,64,44,-100,-100,-100,0,0,100,0.00,40.00,0,-999,0,0.00
2013-7-29,80,60,46,-100,-100,-100,0,0,100,0.00,40.00,0,-999,0,0.00
2013-7-30,74,57,44,-100,-100,-100,0,0,100,0.00,40.00,0,-999,0,0.00
2013-7-31,82,61,42,-100,-100,-100,0,0,100,0.00,40.00,0,-999,0,0.00
2013-8-1,67,56,48,-100,-100,-100,0,0,100,0.00,40.00,0,-999,0,0.00
2013-8-2,71,53,43,-100,-100,-100,0,0,100,0.00,40.00,0,-999,0,0.00
2013-8-3,73,56,44,-100,-100,-100,0,0,100,0.00,40.00,0,-999,0,0.00
2013-8-4,80,58,44,-100,-100,-100,0,0,100,0.00,40.00,0,-999,0,0.00
2013-8-5,81,59,46,-100,-100,-100,0,0,100,0.00,40.00,0,-999,0,0.00
2013-8-6,77,62,46,-100,-100,-100,0,0,100,0.00,40.00,0,-999,0,0.00
2013-8-7,82,59,45,-100,-100,-100,0,0,100,0.00,40.00,0,-999,0,0.00
2013-8-8,80,60,45,-100,-100,-100,0,0,100,0.00,40.00,0,-999,0,0.00
2013-8-9,77,64,50,-100,-100,-100,0,0,100,0.00,40.00,0,-999,0,0.00
2013-8-10,79,58,46,-100,-100,-100,0,0,100,0.00,40.00,0,-999,0,0.00
2013-8-11,79,61,48,-100,-100,-100,0,0,100,0.00,40.00,0,-999,0,0.00
2013-8-12,79,61,47,-100,-100,-100,0,0,100,0.00,40.00,0,-999,0,0.00
2013-8-13,78,62,48,-100,-100,-100,0,0,100,0.00,40.00,0,-999,0,0.00
2013-8-14,83,60,43,-100,-100,-100,0,0,100,0.00,40.00,0,-999,0,0.00
2013-8-15,92,60,45,-100,-100,-100,0,0,100,0.00,40.00,0,-999,0,0.00
2013-8-16,90,68,47,-100,-100,-100,0,0,100,0.00,40.00,0,-999,0,0.00
2013-8-17,85,70,48,-100,-100,-100,0,0,100,0.00,40.00,0,-999,0,0.00
2013-8-18,87,69,51,-100,-100,-100,0,0,100,0.00,40.00,0,-999,0,0.00
2013-8-19,88,67,47,-100,-100,-100,0,0,100,0.00,40.00,0,-999,0,0.00
2013-8-20,87,66,45,-100,-100,-100,0,0,100,0.00,40.00,0,-999,0,0.00
2013-8-21,76,54,42,-100,-100,-100,0,0,100,0.00,40.00,0,-999,0,0.00
2013-8-22,80,59,45,-100,-100,-100,0,0,100,0.00,40.00,0,-999,0,0.00
2013-8-23,80,66,54,-100,-100,-100,0,0,100,0.00,40.00,0,-999,0,0.00
2013-8-24,81,65,51,-100,-100,-100,0,0,100,0.00,40.00,0,-999,0,0.00
2013-8-25,79,60,49,-100,-100,-100,0,0,100,0.00,40.00,0,-999,0,0.00
2013-8-26,77,57,49,-100,-100,-100,0,0,100,0.00,40.00,0,-999,0,0.00
2013-8-27,73,53,45,-100,-100,-100,0,0,100,0.00,40.00,0,-999,0,0.00
2013-8-28,80,69,58,-100,-100,-100,0,0,100,0.00,40.00,0,-999,0,0.00
2013-8-29,86,62,46,-100,-100,-100,0,0,100,0.00,40.00,0,-999,0,0.00
2013-8-30,84,62,45,-100,-100,-100,0,0,100,0.00,40.00,0,-999,0,0.00
2013-8-31,82,58,44,-100,-100,-100,0,0,100,0.00,40.00,0,-999,0,0.00
2013-9-1,83,58,43,-100,-100,-100,0,0,100,0.00,40.00,0,-999,0,0.00
2013-9-2,84,67,49,-100,-100,-100,0,0,100,0.00,40.00,0,-999,0,0.00
2013-9-3,78,63,56,-100,-100,-100,0,0,100,0.00,40.00,0,-999,0,0.00
2013-9-4,77,58,53,-100,-100,-100,0,0,100,0.00,40.00,0,-999,0,0.00
2013-9-5,69,59,51,-100,-100,-100,0,0,100,0.00,40.00,0,-999,0,0.00
2013-9-6,71,58,54,-100,-100,-100,0,0,100,0.00,40.00,0,-999,0,0.00
2013-9-7,79,63,50,-100,-100,-100,0,0,100,0.00,40.00,0,-999,0,0.00
2013-9-8,64,54,46,-100,-100,-100,0,0,100,0.00,40.00,0,-999,0,0.00
2013-9-9,70,56,47,-100,-100,-100,0,0,100,0.00,40.00,0,-999,0,0.00
2013-9-10,72,50,42,-100,-100,-100,0,0,100,0.00,40.00,0,-999,0,0.00
2013-9-11,79,59,42,-100,-100,-100,0,0,100,0.00,40.00,0,-999,0,0.00
2013-9-12,81,73,54,-100,-100,-100,0,0,100,0.00,40.00,0,-999,0,0.00
2013-9-13,77,62,51,-100,-100,-100,0,0,100,0.00,40.00,0,-999,0,0.00
2013-9-14,71,61,53,-100,-100,-100,0,0,100,0.00,40.00,0,-999,0,0.00
2013-9-15,75,62,45,-100,-100,-100,0,0,100,0.00,40.00,0,-999,0,0.00
2013-9-16,81,63,51,-100,-100,-100,0,0,100,0.00,40.00,0,-999,0,0.00
2013-9-17,54,49,41,-100,-100,-100,0,0,100,0.00,40.00,0,-999,0,0.00
2013-9-18,49,47,46,-100,-100,-100,0,0,100,0.00,40.00,0,-999,0,0.00
2013-9-19,62,49,40,-100,-100,-100,0,0,100,0.00,40.00,0,-999,0,0.00
2013-9-20,52,37,31,-100,-100,-100,0,0,100,0.00,40.00,0,-999,0,0.00
2013-9-21,71,54,35,-100,-100,-100,0,0,100,0.00,40.00,0,-999,0,0.00
2013-9-22,56,48,43,-100,-100,-100,0,0,100,0.00,40.00,0,-999,0,0.00
2013-9-23,54,46,40,-100,-100,-100,0,0,100,0.00,40.00,0,-999,0,0.00
2013-9-24,45,42,40,-100,-100,-100,0,0,100,0.00,40.00,0,-999,0,0.00
2013-9-25,43,40,38,-100,-100,-100,0,0,100,0.00,40.00,0,-999,0,0.00
2013-9-26,41,37,33,-100,-100,-100,0,0,100,0.00,40.00,0,-999,0,0.00
2013-9-27,45,37,29,-100,-100,-100,0,0,100,0.00,40.00,0,-999,0,0.00
2013-9-28,54,47,38,-100,-100,-100,0,0,100,0.00,40.00,0,-999,0,0.00
2013-9-29,52,45,40,-100,-100,-100,0,0,100,0.00,40.00,0,-999,0,0.00
2013-9-30,51,44,39,-100,-100,-100,0,0,100,0.00,40.00,0,-999,0,0.00
2013-10-1,47,43,40,-100,-100,-100,0,0,100,0.00,40.00,0,-999,0,0.00
2013-10-2,47,40,31,-100,-100,-100,0,0,100,0.00,40.00,0,-999,0,0.00
2013-10-3,39,34,32,-100,-100,-100,0,0,100,0.00,40.00,0,-999,0,0.00
2013-10-4,46,34,30,-100,-100,-100,0,0,100,0.00,40.00,0,-999,0,0.00
2013-10-5,55,35,26,-100,-100,-100,0,0,100,0.00,40.00,0,-999,0,0.00
2013-10-6,55,39,31,-100,-100,-100,0,0,100,0.00,40.00,0,-999,0,0.00
2013-10-7,63,44,32,-100,-100,-100,0,0,100,0.00,40.00,0,-999,0,0.00
2013-10-8,46,40,32,-100,-100,-100,0,0,100,0.00,40.00,0,-999,0,0.00
2013-10-9,51,37,29,-100,-100,-100,0,0,100,0.00,40.00,0,-999,0,0.00
2013-10-10,47,37,27,-100,-100,-100,0,0,100,0.00,40.00,0,-999,0,0.00
2013-10-11,48,38,31,-100,-100,-100,0,0,100,0.00,40.00,0,-999,0,0.00
2013-10-12,45,33,24,-100,-100,-100,0,0,100,0.00,40.00,0,-999,0,0.00
2013-10-13,47,36,24,-100,-100,-100,0,0,100,0.00,40.00,0,-999,0,0.00
2013-10-14,40,36,32,-100,-100,-100,0,0,100,0.00,40.00,0,-999,0,0.00
2013-10-15,43,32,26,-100,-100,-100,0,0,100,0.00,40.00,0,-999,0,0.00
2013-10-16,41,33,27,-100,-100,-100,0,0,100,0.00,40.00,0,-999,0,0.00
2013-10-17,44,36,31,-100,-100,-100,0,0,100,0.00,40.00,0,-999,0,0.00
2013-10-18,50,33,24,-100,-100,-100,0,0,100,0.00,40.00,0,-999,0,0.00
2013-10-19,57,40,29,-100,-100,-100,0,0,100,0.00,40.00,0,-999,0,0.00
2013-10-20,53,41,34,-100,-100,-100,0,0,100,0.00,40.00,0,-999,0,0.00
2013-10-21,55,38,28,-100,-100,-100,0,0,100,0.00,40.00,0,-999,0,0.00
2013-10-22,56,37,29,-100,-100,-100,0,0,100,0.00,40.00,0,-999,0,0.00
2013-10-23,52,33,26,-100,-100,-100,0,0,100,0.00,40.00,0,-999,0,0.00
2013-10-24,52,32,25,-100,-100,-100,0,0,100,0.00,40.00,0,-999,0,0.00
2013-10-25,55,34,27,-100,-100,-100,0,0,100,0.00,40.00,0,-999,0,0.00
2013-10-26,52,33,25,-100,-100,-100,0,0,100,0.00,40.00,0,-999,0,0.00
2013-10-27,49,36,26,-100,-100,-100,0,0,100,0.00,40.00,0,-999,0,0.00
2013-10-28,30,23,19,-100,-100,-100,0,0,100,0.00,40.00,0,-999,0,0.00
2013-10-29,25,18,11,-100,-100,-100,0,0,100,0.00,40.00,0,-999,0,0.00
2013-10-30,37,26,19,-100,-100,-100,0,0,100,0.00,40.00,0,-999,0,0.00
2013-10-31,40,37,34,-100,-100,-100,0,0,100,0.00,40.00,0,-999,0,0.00
2013-11-1,45,36,30,-100,-100,-100,0,0,100,0.00,40.00,0,-999,0,0.00
2013-11-2,49,35,29,-100,-100,-100,0,0,100,0.00,40.00,0,-999,0,0.00
2013-11-3,34,30,26,-100,-100,-100,0,0,100,0.00,40.00,0,-999,0,0.00
2013-11-4,31,25,21,-100,-100,-100,0,0,100,0.00,40.00,0,-999,0,0.00
2013-11-5,34,26,17,-100,-100,-100,0,0,100,0.00,40.00,0,-999,0,0.00
2013-11-6,38,32,29,-100,-100,-100,0,0,100,0.00,40.00,0,-999,0,0.00
2013-11-7,48,37,29,-100,-100,-100,0,0,100,0.00,40.00,0,-999,0,0.00
2013-11-8,38,34,32,-100,-100,-100,0,0,100,0.00,40.00,0,-999,0,0.00
2013-11-9,37,31,24,-100,-100,-100,0,0,100,0.00,40.00,0,-999,0,0.00
2013-11-10,48,37,28,-100,-100,-100,0,0,100,0.00,40.00,0,-999,0,0.00
2013-11-11,47,38,30,-100,-100,-100,0,0,100,0.00,40.00,0,-999,0,0.00
2013-11-12,43,31,25,-100,-100,-100,0,0,100,0.00,40.00,0,-999,0,0.00
2013-11-13,48,39,34,-100,-100,-100,0,0,100,0.00,40.00,0,-999,0,0.00
2013-11-14,37,31,26,-100,-100,-100,0,0,100,0.00,40.00,0,-999,0,0.00
2013-11-15,36,33,28,-100,-100,-100,0,0,100,0.00,40.00,0,-999,0,0.00
2013-11-16,34,31,28,-100,-100,-100,0,0,100,0.00,40.00,0,-999,0,0.00
2013-11-17,35,30,25,-100,-100,-100,0,0,100,0.00,40.00,0,-999,0,0.00
2013-11-18,48,38,32,-100,-100,-100,0,0,100,0.00,40.00,0,-999,0,0.00
2013-11-19,46,40,32,-100,-100,-100,0,0,100,0.00,40.00,0,-999,0,0.00
2013-11-20,36,30,16,-100,-100,-100,0,0,100,0.00,40.00,0,-999,0,0.00
2013-11-21,22,14,7,-100,-100,-100,0,0,100,0.00,40.00,0,-999,0,0.00
2013-11-22,26,15,10,-100,-100,-100,0,0,100,0.00,40.00,0,-999,0,0.00
2013-11-23,28,15,8,-100,-100,-100,0,0,100,0.00,40.00,0,-999,0,0.00
2013-11-24,31,22,14,-100,-100,-100,0,0,100,0.00,40.00,0,-999,0,0.00
2013-11-25,34,27,23,-100,-100,-100,0,0,100,0.00,40.00,0,-999,0,0.00
2013-11-26,37,25,20,-100,-100,-100,0,0,100,0.00,40.00,0,-999,0,0.00
2013-11-27,38,25,19,-100,-100,-100,0,0,100,0.00,40.00,0,-999,0,0.00
2013-11-28,34,22,16,-100,-100,-100,0,0,100,0.00,40.00,0,-999,0,0.00
2013-11-29,36,27,20,-100,-100,-100,0,0,100,0.00,40.00,0,-999,0,0.00
2013-11-30,42,37,34,-100,-100,-100,0,0,100,0.00,40.00,0,-999,0,0.00
2013-12-1,40,38,35,-100,-100,-100,0,0,100,0.00,40.00,0,-999,0,0.00
2013-12-2,37,30,16,-100,-100,-100,0,0,100,0.00,40.00,0,-999,0,0.00
2013-12-3,13,7,1,-100,-100,-100,0,0,100,0.00,40.00,0,-999,0,0.00
2013-12-4,7,0,-7,-100,-100,-100,0,0,100,0.00,40.00,0,-999,0,0.00
2013-12-5,4,-6,-10,-100,-100,-100,0,0,100,0.00,40.00,0,-999,0,0.00
2013-12-6,-3,-8,-12,-100,-100,-100,0,0,100,0.00,40.00,0,-999,0,0.00
2013-12-7,-4,-12,-16,-100,-100,-100,0,0,100,0.00,40.00,0,-999,0,0.00
2013-12-8,4,-7,-13,-100,-100,-100,0,0,100,0.00,40.00,0,-999,0,0.00
2013-12-9,21,7,-9,-100,-100,-100,0,0,100,0.00,40.00,0,-999,0,0.00
2013-12-10,24,21,19,-100,-100,-100,0,0,100,0.00,40.00,0,-999,0,0.00
2013-12-11,27,19,13,-100,-100,-100,0,0,100,0.00,40.00,0,-999,0,0.00
2013-12-12,32,23,16,-100,-100,-100,0,0,100,0.00,40.00,0,-999,0,0.00
2013-12-13,34,31,27,-100,-100,-100,0,0,100,0.00,40.00,0,-999,0,0.00
2013-12-14,38,32,24,-100,-100,-100,0,0,100,0.00,40.00,0,-999,0,0.00
2013-12-15,45,37,32,-100,-100,-100,0,0,100,0.00,40.00,0,-999,0,0.00
2013-12-16,44,38,29,-100,-100,-100,0,0,100,0.00,40.00,0,-999,0,0.00
2013-12-17,53,35,28,-100,-100,-100,0,0,100,0.00,40.00,0,-999,0,0.00
2013-12-18,42,34,28,-100,-100,-100,0,0,100,0.00,40.00,0,-999,0,0.00
2013-12-19,31,16,8,-100,-100,-100,0,0,100,0.00,40.00,0,-999,0,0.00
2013-12-20,27,17,8,-100,-100,-100,0,0,100,0.00,40.00,0,-999,0,0.00
2013-12-21,29,24,19,-100,-100,-100,0,0,100,0.00,40.00,0,-999,0,0.00
2013-12-22,32,28,25,-100,-100,-100,0,0,100,0.00,40.00,0,-999,0,0.00
2013-12-23,41,36,30,-100,-100,-100,0,0,100,0.00,40.00,0,-999,0,0.00
2013-12-24,33,28,21,-100,-100,-100,0,0,100,0.00,40.00,0,-999,0,0.00
2013-12-25,31,21,16,-100,-100,-100,0,0,100,0.00,40.00,0,-999,0,0.00
2013-12-26,45,37,30,-100,-100,-100,0,0,100,0.00,40.00,0,-999,0,0.00
2013-12-27,37,32,27,-100,-100,-100,0,0,100,0.00,40.00,0,-999,0,0.00
2013-12-28,36,31,26,-100,-100,-100,0,0,100,0.00,40.00,0,-999,0,0.00
2013-12-29,31,26,20,-100,-100,-100,0,0,100,0.00,40.00,0,-999,0,0.00
2013-12-30,40,33,26,-100,-100,-100,0,0,100,0.00,40.00,0,-999,0,0.00
2013-12-31,38,36,29,-100,-100,-100,0,0,100,0.00,40.00,0,-999,0,0.00
2014-1-1,36,28,24,-100,-100,-100,0,0,100,0.00,40.00,0,-999,0,0.00
2014-1-2,42,34,25,-100,-100,-100,0,0,100,0.00,40.00,0,-999,0,0.00